Location: Newark
(50.4348°N, 30.5552°E)
Time: 02:02:52
(UTC+00:00)

Transit 2A Rocket - Pass Details

Date: 02 February 2020
Orbit: 591 x 912 km, 66.7° (Epoch: 25 February)

Event Time Altitude Azimuth Distance (km) Brightness Sun altitude
Exits shadow 03:44:35 19° 328° (NNW) 1,470 6.1 -17.2°
Maximum altitude 03:44:45 19° 331° (NNW) 1,471 6.2 -17.2°
Drops below altitude 10° 03:48:00 10° 18° (NNE) 2,020 7.3 -16.7°
Sets 03:50:57 0° 36° (NE) 2,983 8.5 -16.2°
